Terug naar catalogus

STARLINK-31293

ActiefCommunicatieVLEO
NORAD 58952·PAYLOAD·🇺🇸 United States

Gelanceerd Feb 10, 2024 vanaf Vandenberg Space Force Base

Loading…

Volgende Passages (komende 24 uur)

TLE

VersSource: CelesTrak SupGP

Epoch: Sep 14, 2026, 21:01 UTC

1 58952C 24027X   26257.87618056 -.00068433  00000+0 -21993-2 0  2575
2 58952  53.1576 149.4871 0001428  88.9006 253.0902 15.31755966    18

Volg STARLINK-31293 in realtime met AllMySat

Download on the App Store